Время (UTC), дата Ветер
(°,м/с) 
Видим.   Явления Облачность Т
(°С)
Тd
(°С)
f(%) Тe
(°С)
Pmin
(гПа)
dP
(гПа)
Po
(мм)
O2
(г/м3)
Тmin Tmax R s Состояние
почвы
00 01.03.12 300 (СЗ) 0600 м  переохл. морось (гололёд){туман} [диам. гололёда 14 мм]  ?/?  
-1.9 -2.1 99 -3  1004.3  0.7  712  288           
03 01.03.12 310 (СЗ) 0700 м  переохл. морось (гололёд){туман} [диам. гололёда 16 мм]  ?/?  
-1.9 -2.1 99 -3  1003.8  -0.5  712  289        34  неравномерный
мокрый или
старый снег
100% 
06 01.03.12 тихо ()   1000 м  переохл. морось (гололёд){туман}  10/10 100 м 
[St]
-1.6 -1.9 98 -2  1004  0.2  712  289  -1.9      34  неравномерный
мокрый или
старый снег
100% 
09 01.03.12 310 (СЗ) 10 км  снежные зёрна{морось} [диам. гололёда 17 мм]  10/10 270 м 
[St]
-1.6 -1.9 98 -3  1003.8  -0.2  712  289           
12 01.03.12 310 (СЗ) 10 км  {снег, морось} [диам. гололёда 10 мм]  10/10 240 м 
[St]
-1.9 -2.3 97 -5  1004.6  0.7  712  289           
15 01.03.12 290 (З) 4000 м  снежные зёрна  10/10 180 м 
[St]
-2.2 -2.6 97 -6  1007.1  2.3  714  290    -1.4       
18 01.03.12 290 (З) 4000 м  слаб. снег  10/10 100 м 
[Ns]
-1.9 -2.2 98 -6  1007.9  0.8  714  290    -1.1  0.7     
21 01.03.12 280 (З) 4000 м  слаб. снег [диам. гололёда 10 мм]  10/10 210 м 
[Ns]
-2.8 -3.2 97 -6  1008  0.1  714  291           
00 02.03.12 300 (СЗ) 10 км  слаб. снег [диам. гололёда 10 мм]  10/10 240 м 
[Ns]
-4.2 -4.7 96 -9  1007.9  -0.3  714  293           
03 02.03.12 290 (З) 4000 м  слаб. снег  10/10 300 м 
[Ns]
-4.3 -4.8 96 -8  1008.2  0.2  714  293        35  равномерный
сухой снег
100% 
06 02.03.12 280 (З) 4000 м  слаб. снег  10/10 200 м 
[Ns]
-3.5 -4.1 96 -8  1008.3  0.3  714  292  -4.7    0.4     
09 02.03.12 280 (З) 4000 м  слаб. снег  10/6 420 м кучево-дожд., средняя 
[Cb cap|Ac und]
-3.3 -4.4 92 -8  1008.1  -0.2  714  292           
12 02.03.12 280 (З) 10 км  слаб. ливневой снег [диам. гололёда 5 мм]  9/8 400 м кучево-дожд., средняя 
[Cb cap|Ac trans]
-3.8 -5.4 89 -8  1007.3  -0.8  714  292           
15 02.03.12 270 (З) >10 км  позёмок{ливн. осадки}  6/3 480 м кучево-дожд., средняя 
[Cb calv|Ac trans]
-5.4 -6.8 90 -11  1008.2  0.5  714  294    -2.9       
18 02.03.12 270 (З) >10 км  позёмок{ливн. осадки}  9/5 300 м кучево-дожд., средняя 
[Cb calv|Ac trans]
-8.2 -9.7 89 -15  1009.9  0.9  715  298    -2.9     
21 02.03.12 270 (З) 10 км  позёмок  6/3 600 м кучево-дожд., средняя 
[Cb cap|Ac trans]
-8.5 -9.8 90 -15  1008.3  -1.5  714  298           
00 03.03.12 260 (З) 10 км  позёмок  10/8 420 м кучево-дожд., средняя 
[Cb calv|Ac und]
-7.6 -8.5 93 -13  1006.4  -1.6  712  296           
03 03.03.12 270 (З) 10 км  позёмок  9/6 300 м кучево-дожд., средняя 
[Cb calv|Ac trans]
-8.1 -9.2 92 -13  1005.8  -0.6  712  296        34  равномерный
сухой снег
100% 
06 03.03.12 290 (З) 10 км  слаб. ливневой снег  6/6 300 м кучево-дожд. 
[Cb calv]
-6.8 -8.5 88 -11  1004.6  -0.9  711  295  -8.9    0.0     
09 03.03.12 290 (З) >10 км  {ливн. осадки}  4/3 300 м средняя 
[Sc diur, vesp|Ac trans]
-4.6 -7.8 78 -8  1003.2  -0.9  711  292           
12 03.03.12 280 (З) >10 км  {ливн. осадки}  9/3 600 м средняя, верхняя 
[Sc|Ac As|Ci]
-4.5 -8 76 -9  1003.2  711  292           
15 03.03.12 260 (З) >10 км    10/3 600 м средняя 
[Sc|Ac und]
-5.3 -7.7 83 -9  1004.8  1.4  712  293    -4.2       
18 03.03.12 270 (З) >10 км    10/6 1000 м средняя 
[Sc|Ac und]
-5 -7.5 83 -10  1005.8  712  293    -4.2  0.0     
21 03.03.12 270 (З) >10 км  позёмок  10/0 средняя, верхняя 
[Ac trans|Ci fib]
-5.9 -7.8 86 -11  1006.4  0.5  713  294           
00 04.03.12 280 (З) >10 км  позёмок  10/0 средняя 
[As op]
-5.8 -8.5 81 -12  1006.3  0.1  713  294           
03 04.03.12 280 (З) >10 км  позёмок  10/0 средняя 
[As op]
-5.6 -7.5 86 -11  1007.1  0.7  713  294        35  неравномерный
сухой снег
100% 
06 04.03.12 280 (З) >10 км  позёмок  10/3 1000 м средняя 
[Sc|Ac und]
-4.4 -7.1 81 -10  1007.4  0.6  714  293  -5.9      35  неравномерный
сухой снег
100% 
09 04.03.12 280 (З) >10 км  позёмок  10/3 600 м средняя 
[Sc|Ac und]
-2.7 -6.3 76 -8  1007.5  0.4  714  291           
12 04.03.12 280 (З) >10 км  позёмок  10/3 600 м средняя 
[Sc|Ac und]
-2.2 -5.9 76 -7  1007.6  0.1  714  291           
15 04.03.12 290 (З) >10 км    10/4 600 м средняя 
[Sc|Ac und]
-2.8 -5.8 80 -8  1008.9  1.1  715  292    -1.8       
18 04.03.12 280 (З) >10 км    10/6 700 м средняя 
[Sc|Ac und]
-3.7 -6.4 82 -8  1010.7  1.5  716  293    -1.8       
21 04.03.12 270 (З) >10 км    10/6 500 м кучево-дожд., средняя 
[Cb calv|Ac und]
-5 -6.6 89 -9  1011.7  0.7  717  295           
00 05.03.12 270 (З) >10 км    8/5 300 м кучево-дожд., средняя 
[Cb calv|Ac trans]
-6.2 -7.8 88 -10  1012.4  0.4  717  296           
03 05.03.12 270 (З) >10 км    5/3 300 м средняя 
[Sc|Ac trans]
-6.3 -8.5 84 -11  1013.2  0.7  717  297        35  неравномерный
мокрый или
старый снег
100% 
06 05.03.12 280 (З) >10 км    8/3 600 м средняя, верхняя 
[Sc|Ac trans|Ci fib]
-4.5 -6.8 84 -10  1014  1.1  718  295  -6.7      35  неравномерный
мокрый или
старый снег
100% 
09 05.03.12 270 (З) >10 км    6/3 1000 м средняя, верхняя 
[Sc|Ac trans|Ci fib]
-1.6 -6.9 67 -6  1014.6  1.1  719  292           
12 05.03.12 280 (З) >10 км    4/3 600 м средняя 
[Sc|Ac trans]
-1.1 -6.6 66 -6  1015.4  0.9  720  292           
15 05.03.12 290 (З) >10 км    6/3 600 м средняя 
[Sc|Ac trans]
-2.1 -5.5 77 -5  1016.6  0.9  721  293    -0.9       
18 05.03.12 270 (З) >10 км    6/6 540 м 
[Sc]
-3.5 -5.4 87 -6  1017.6  0.7  721  295    -0.9       
21 05.03.12 250 (З) >10 км  {снег}  10/5 600 м средняя 
[Sc|Ac und]
-4.2 -5.6 90 -6  1017.9  0.1  721  296           
03 06.03.12 200 (Ю) 10 км  слаб. снег  10/5 600 м средняя 
[Sc|Ac und]
-4.3 -5.5 91 -6  1015.3  -0.8  719  295        34  неравномерный
мокрый или
старый снег
100% 
06 06.03.12 310 (СЗ) 1500 м  снег  10/8 200 м средняя 
[St|Ac und]
-4.2 -5 94 -6  1015.3  719  295  -4.7    0.2     
09 06.03.12 270 (З) 2000 м  снег  10/8 210 м средняя 
[St|Ac und]
-4.2 -5.6 90 -8  1017.2  1.8  721  295           
12 06.03.12 260 (З) 10  >10 км  позёмок{снег}  8/3 600 м средняя 
[Sc|Ac trans]
-4.2 -7.2 79 -10  1018.3  721  296           
15 06.03.12 280 (З) >10 км  позёмок  4/3 600 м средняя 
[Sc|Ac trans]
-5.2 -7.8 82 -11  1019.4  0.8  722  297    -3.8       
18 06.03.12 270 (З) 10  >10 км  позёмок  9/6 300 м кучево-дожд., средняя 
[Cb calv|Ac trans]
-5.8 -7.7 86 -12  1021.4  1.7  723  299    -3.8     
21 06.03.12 280 (З) 11  >10 км  позёмок  6/3 300 м кучево-дожд., средняя 
[Cb calv|Ac trans]
-6.7 -8.7 86 -14  1022.5  0.8  724  300           
00 07.03.12 280 (З) >10 км  позёмок  3/0 средняя 
[Ac trans]
-7.9 -10.5 82 -13  1023.5  0.7  725  302           
03 07.03.12 280 (З) >10 км  позёмок  6/4 600 м средняя 
[Sc|Ac trans]
-7.5 -9.2 88 -13  1023.4  725  301        35  очень
неравномерный
сухой снег
(сугробы, заносы) 
06 07.03.12 270 (З) 4000 м  слаб. ливневой снег  9/6 300 м кучево-дожд., средняя 
[Cb calv|Ac trans]
-7 -8.3 90 -12  1024.8  1.5  726  301  -8      35  очень
неравномерный
сухой снег
(сугробы, заносы) 
09 07.03.12 270 (З) 10  >10 км  {ливн. осадки}  8/4 300 м кучево-дожд., средняя 
[Cb calv|Ac trans]
-5 -8.7 75 -11  1024.7  0.3  726  299           
12 07.03.12 280 (З) >10 км  {ливн. осадки}  8/5 500 м кучево-дожд., средняя 
[Cb cap|Ac inh]
-5 -8.8 75 -10  1024.9  0.2  726  299           
15 07.03.12 260 (З) >10 км    9/3 300 м средняя 
[Sc diur, vesp|Ac trans]
-5.5 -8.5 79 -11  1025.3  0.3  726  299    -4.5       
18 07.03.12 280 (З) >10 км    3/3 600 м 
[Sc]
-6.6 -9.7 79 -12  1026.4  0.8  727  301    -4.5  0.0     
21 07.03.12 270 (З) >10 км    5/5 300 м 
[Sc diur, vesp]
-8.3 -10.1 87 -15  1027.4  0.6  727  303           
00 08.03.12 270 (З) 10  2000 м  слаб. ливневой снег  10/6 300 м кучево-дожд., средняя 
[Cb cap|Ac und]
-8.6 -10.1 89 -16  1027.5  727  303           
03 08.03.12 260 (З) 10  10 км  позёмок{ливн. осадки}  8/8 300 м 
[Sc]
-8.8 -10.4 88 -16  1027.8  0.3  727  304        35  очень
неравномерный
сухой снег
(сугробы, заносы) 
06 08.03.12 280 (З) >10 км  позёмок{ливн. осадки}  4/0 верхняя 
[Ci fib]
-8.2 -10.5 83 -15  1028  0.3  728  303  -9      35  очень
неравномерный
сухой снег
(сугробы, заносы) 
09 08.03.12 290 (З) >10 км  позёмок  3/0 средняя 
[Ac trans]
-4.3 -8.8 71 -9  1027  0.1  728  299           
12 08.03.12 290 (З) >10 км    4/3 600 м средняя 
[Sc|Ac trans]
-3.8 -8.5 70 -8  1026.3  -0.5  727  298           
15 08.03.12 260 (З) >10 км    6/3 1000 м средняя 
[Sc|Ac trans]
-5.4 -8.2 81 -9  1027.4  -0.5  728  300    -3.7       
18 08.03.12 240 (ЮЗ) >10 км    9/5 600 м средняя 
[Sc|Ac trans]
-5.7 -7.8 85 -9  1027.8  0.3  728  300    -3.7       
21 08.03.12 270 (З) 10 км  слаб. ливневой снег  10/6 630 м кучево-дожд., средняя 
[Cb cap|Ac und]
-5.6 -6.9 91 -8  1027.4  -0.3  728  300           
00 09.03.12 290 (З) 4000 м  слаб. ливневой снег  10/8 330 м кучево-дожд., средняя 
[Cb cap|Ac und]
-6 -6.9 93 -10  1027.4  0.1  728  300           
03 09.03.12 270 (З) >10 км  в посл. час ливневой снег  8/5 600 м кучево-дожд., средняя 
[Cb calv|Ac trans]
-9 -10.7 87 -13  1028.6  0.5  728  304        37  очень
неравномерный
сухой снег
(сугробы, заносы) 
06 09.03.12 270 (З) >10 км  слаб. снег{ливн. осадки}  6/6 300 м 
[Sc]
-7.4 -10.1 81 -12  1028.7  0.4  728  303  -9.1    0.3     
09 09.03.12 280 (З) 4000 м  слаб. снег  8/8 600 м 
[Sc]
-6 -9 79 -11  1028.7  0.3  728  301           
12 09.03.12 280 (З) 10 км  позёмок{ливн. осадки, снег}  8/8 570 м кучево-дожд. 
[Cb calv]
-6 -9.3 77 -12  1028.7  728  301           
15 09.03.12 280 (З) 10 км  позёмок  9/9 420 м кучево-дожд. 
[Cb calv]
-6.4 -8.2 87 -11  1029.1  0.3  729  301    -5.7       
18 09.03.12 290 (З) 4000 м  слаб. ливневой снег  10/8 300 м кучево-дожд., средняя 
[Cb cap|Ac und]
-6.9 -8.5 88 -12  1030.1  0.8  729  302    -5.7  0.0     
21 09.03.12 290 (З) 10 км  слаб. ливневой снег  8/5 360 м кучево-дожд., средняя 
[Cb cap|Ac trans]
-8.4 -10.1 87 -13  1030.3  0.1  729  304           
00 10.03.12 280 (З) 10 км  позёмок{ливн. осадки}  9/5 300 м кучево-дожд., средняя 
[Cb cap|Ac trans]
-9.1 -10.4 90 -15  1029.6  -0.8  729  305           
03 10.03.12 280 (З) 10 км  позёмок  9/5 300 м кучево-дожд., средняя 
[Cb calv|Ac trans]
-9.2 -10.5 90 -15  1029  -0.6  728  305        38  очень
неравномерный
сухой снег
(сугробы, заносы) 
06 10.03.12 270 (З) 2500 м  слаб. ливневой снег  10/6 200 м кучево-дожд., верхняя 
[Cb cap|Ci]
-8.6 -10.2 88 -15  1029  -0.6  728  304  -9.9    0.2     
09 10.03.12 270 (З) 11{18}  3000 м  метель{ливн. осадки}  8/6 300 м кучево-дожд., верхняя 
[Cb cap|Ci]
-7.6 -11.1 76 -15  1028.5  -0.6  728  303           
12 10.03.12 270 (З) 11  1500 м  ливневой снег  8/6 300 м кучево-дожд., верхняя 
[Cb cap|Ci]
-7.1 -10.1 79 -14  1027.6  -0.6  728  302           
15 10.03.12 270 (З) 10  1100 м  ливневой снег  10/6 300 м кучево-дожд., верхняя 
[Cb cap|Ci]
-7.2 -9 87 -14  1027.6  728  302    -6.9       
18 10.03.12 280 (З) 2000 м  ливневой снег  10/8 200 м кучево-дожд., средняя 
[Cb cap|Ac und]
-7.4 -8.9 89 -14  1028.4  728  302    -6.9  0.0     
21 10.03.12 270 (З) 1500 м  ливневой снег  10/6 180 м кучево-дожд., средняя, верхняя 
[Cb cap|Ac und|Ci ing]
-7.7 -9 90 -14  1028.6  0.2  728  303           
00 11.03.12 280 (З) 2000 м  ливневой снег  10/8 240 м кучево-дожд., средняя 
[Cb cap|Ac und]
-8.3 -9.6 90 -13  1029.2  0.2  728  304           
03 11.03.12 250 (З) 4000 м  слаб. ливневой снег  8/5 300 м кучево-дожд., средняя 
[Cb cap|Ac trans]
-8.9 -10.1 91 -15  1029.2  0.1  728  304        40  очень
неравномерный
сухой снег
(сугробы, заносы) 
06 11.03.12 250 (З) >10 км  {ливн. осадки}  3/0 средняя 
[Ac trans]
-7 -9.3 84 -12  1028.6  -0.2  728  302  -9    0.7     
09 11.03.12 270 (З) >10 км  позёмок  3/0 средняя 
[Ac trans]
-4.4 -8.6 73 -10  1027.5  -0.2  728  299           
12 11.03.12 270 (З) >10 км    3/0 средняя 
[Ac trans]
-1.8 -9.8 54 -5  1025.6  -1.3  727  296           
15 11.03.12 070 (В) >10 км    ясно 
-5.8 -10.1 72 -8  1025.4  -0.9  726  300    -0.4       
18 11.03.12 120 (ЮВ) >10 км    ясно 
-8 -11 79 -12  1024.7  -1.1  725  302    -0.4  0.0     
21 11.03.12 120 (ЮВ) >10 км    ясно 
-8.9 -11.7 80 -13  1022.2  -2.6  723  302           
00 12.03.12 090 (В) >10 км    3/0 средняя 
[Ac trans]
-9.5 -11.5 85 -14  1020.2  -2  722  302           
03 12.03.12 120 (ЮВ) >10 км    4/0 средняя, верхняя 
[Ac trans|Ci fib]
-9.1 -10.3 91 -14  1018.4  -1.6  721  301        40  очень
неравномерный
сухой снег
(сугробы, заносы) 
06 12.03.12 120 (ЮВ) 11  4000 м  метель  8/5 300 м верхняя 
[Sc|Ci fib]
-6.1 -7.8 88 -13  1015.6  -2  719  297  -10.4      40  очень
неравномерный
сухой снег
(сугробы, заносы) 
09 12.03.12 110 (В) 12  4000 м  метель  9/4 300 м верхняя 
[Sc|Ci fib]
-4.2 -6.6 83 -11  1013  -2  718  294           
12 12.03.12 110 (В) 13  4000 м  метель  10/6 600 м верхняя 
[Sc|Ci fib]
-3.5 -5.7 85 -10  1011.5  -1.3  717  293           
15 12.03.12 110 (В) 10  10 км  позёмок  10/6 330 м средняя 
[Sc|Ac und]
-3.7 -5.1 90 -9  1012.5  0.9  717  294    -3.4       
18 12.03.12 120 (ЮВ) 4000 м  метель  10/10 210 м 
[St]
-4.2 -4.9 95 -9  1013.8  1.2  718  294    -3.4       
21 12.03.12 140 (ЮВ) >10 км  в посл. час снег  10/6 300 м средняя 
[Sc|Ac und]
-4.4 -5.2 94 -9  1014.1  0.2  718  295           
00 13.03.12 150 (ЮВ) >10 км  слаб. снег  10/6 300 м средняя 
[Sc|Ac und]
-4.1 -4.9 94 -8  1014.3  0.2  719  294           
03 13.03.12 180 (Ю) >10 км  {снег}  8/0 средняя 
[Ac trans]
-3.1 -4.5 90 -7  1013.5  -0.5  718  293        50  очень
неравномерный
сухой снег
(сугробы, заносы) 
06 13.03.12 280 (З) >10 км  {снег}  9/3 600 м средняя 
[Sc|Ac trans]
-2.1 -4.5 84 -7  1014.3  0.9  719  292  -4.4    0.0     
09 13.03.12 260 (З) >10 км    3/0 средняя 
[Ac trans]
-0.6 -3.7 79 -5  1014  719  291           
12 13.03.12 280 (З) >10 км    3/0 верхняя 
[Ci fib]
+0.7 -4.3 69 -3  1013.7  719  289           
15 13.03.12 280 (З) >10 км    ясно 
+0.1 -4.7 70 -4  1014.4  0.6  719  290    +0.9       
18 13.03.12 260 (З) >10 км    ясно 
-1.1 -4.6 77 -4  1015.7  0.9  720  292    +1.2       
21 13.03.12 270 (З) >10 км    ясно 
-1.8 -5 79 -6  1015.1  -0.7  719  292           
00 14.03.12 260 (З) >10 км    4/0 средняя 
[Ac trans]
-1.3 -3.4 86 -5  1013.9  -1  719  291           
03 14.03.12 240 (ЮЗ) >10 км    3/3 300 м средняя 
[Sc|Ac trans]
-1 -3.6 82 -5  1011.9  -1.9  717  290        48  очень
неравномерный
сухой снег
(сугробы, заносы) 
06 14.03.12 250 (З) >10 км    8/0 верхняя 
[Ci fib]
+1.4 -2.1 78 -3  1009.7  -1.6  716  287  -2.2      48  очень
неравномерный
сухой снег
(сугробы, заносы) 
09 14.03.12 260 (З) 11  >10 км    9/0 средняя, верхняя 
[Ac trans|Ci fib]
+2.8 -2.3 69 -2  1007.4  -1.9  715  285           
12 14.03.12 270 (З) 10  >10 км    9/0 верхняя 
[Ci fib]
+3.7 -2.8 62 1005.8  -1.3  714  284           
15 14.03.12 280 (З) >10 км    9/0 верхняя 
[Ci fib]
+3.2 -1.4 72 1006  0.1  714  284    +4.5       
18 14.03.12 320 (СЗ) 3000 м  слаб. ливневой снег  10/8 240 м кучево-дожд., средняя 
[Cb cap|Ac und]
-0.8 -1.4 96 -3  1008.3  1.4  715  289    +4.5       
21 14.03.12 290 (З) 2000 м  слаб. ливневой снег  10/8 120 м кучево-дожд., средняя 
[Cb cap|Ac und]
-2.1 -2.6 96 -4  1008.7  1.4  715  291           
00 15.03.12 300 (СЗ) 2500 м  слаб. ливневой снег  10/8 150 м кучево-дожд., средняя 
[Cb cap|Ac und]
-2.2 -2.7 96 -4  1008.5  -0.2  715  291           
03 15.03.12 250 (З) 10 км  слаб. ливневой снег  8/6 300 м кучево-дожд., средняя 
[Cb cap|Ac und]
-2.9 -3.9 93 -5  1009  0.3  715  292        49  очень
неравномерный
сухой снег
(сугробы, заносы) 
06 15.03.12 280 (З) >10 км  в посл. час ливневой снег  9/3 300 м средняя 
[Sc diur, vesp|Ac trans]
-1.6 -3.6 86 -4  1009.5  0.7  716  290  -3.1       
09 15.03.12 290 (З) >10 км  в посл. час ливневой снег  9/5 420 м кучево-дожд., средняя 
[Cb calv|Ac trans]
-1.5 -5.8 73 -5  1010.3  0.7  716  291           
12 15.03.12 280 (З) >10 км  {ливн. осадки}  8/6 600 м кучево-дожд., средняя 
[Cb calv|Ac trans]
-0.6 -5.8 68 -4  1011  0.9  717  290           
15 15.03.12 280 (З) >10 км  {ливн. осадки}  4/4 600 м кучево-дожд. 
[Cb calv]
-2.4 -5.6 79 -6  1012.9  1.4  718  292    -0.6       
18 15.03.12 280 (З) >10 км  {ливн. осадки}  3/3 600 м кучево-дожд. 
[Cb calv]
-2.9 -6.7 75 -6  1014.2  1.4  719  293    -0.6  0.3     
21 15.03.12 250 (З) >10 км    4/3 600 м кучево-дожд., средняя 
[Cb calv|Ac trans]
-3.7 -6.4 82 -8  1015  0.6  719  294           
00 16.03.12 260 (З) >10 км  в посл. час ливневой снег  8/8 540 м кучево-дожд. 
[Cb calv]
-3.8 -5.8 86 -9  1015.6  0.6  720  295           
03 16.03.12 270 (З) 10 км  слаб. ливневой снег  8/5 300 м кучево-дожд., средняя 
[Cb cap|Ac trans]
-4.6 -6.1 89 -9  1016.6  0.8  720  296        46  очень
неравномерный
сухой снег
(сугробы, заносы) 
06 16.03.12 260 (З) 10 км  позёмок{ливн. осадки}  6/3 300 м кучево-дожд., средняя 
[Cb cap|Ac As]
-3.7 -6.2 83 -9  1017.5  721  295  -4.8    0.0     
09 16.03.12 270 (З) 3000 м  слаб. ливневой снег  8/6 240 м кучево-дожд., средняя 
[Cb cap|Ac trans]
-2.5 -6.2 76 -7  1017.9  0.6  721  294           
12 16.03.12 270 (З) 10 км  в посл. час ливневой снег  9/6 570 м кучево-дожд., средняя 
[Cb calv|Ac trans]
-2.4 -6.7 72 -8  1018.7  0.8  722  294           
15 16.03.12 300 (СЗ) 1200 м  слаб. ливневой снег  10/6 150 м кучево-дожд., средняя 
[Cb cap|Ac und]
-4.7 -6.1 90 -9  1020.9  1.6  723  297    -2.1       
18 16.03.12 290 (З) 10 км  в посл. час ливневой дождь  4/4 300 м кучево-дожд. 
[Cb cap]
-6.5 -7.7 91 -10  1023.5  2.1  725  300    -2.1  0.6     
21 16.03.12 300 (СЗ) 4000 м  слаб. ливневой снег  10/5 330 м кучево-дожд., средняя 
[Cb cap|Ac und]
-6.8 -8.3 89 -10  1024.8  1.1  726  301           
00 17.03.12 280 (З) 10 км  слаб. снег{ливн. осадки}  6/4 300 м средняя 
[Sc|Ac trans]
-7.6 -8.7 92 -10  1026  1.1  726  302           
03 17.03.12 300 (СЗ) 10 км  слаб. снег{ливн. осадки}  10/10 100 м 
[St]
-7.2   1027.3  1.3  727          51  очень
неравномерный
сухой снег
(сугробы, заносы) 
06 17.03.12 280 (З) 10 км  {снег}  6/6 300 м 
[Sc]
-5.9 -8.7 80 -9  1028.8  1.7  729  301  -7.8       
09 17.03.12 260 (З) >10 км    8/8 570 м 
[Sc]
-4.1 -8 74 -8  1029  0.6  729  299           
12 17.03.12 270 (З) >10 км    3/0 верхняя 
[Ci fib]
-4.1 -8 74 -8  1029  -0.5  729  299           
15 17.03.12 270 (З) >10 км    8/0 верхняя 
[Ci fib]
-2.3 -6.8 71 -6  1027.4  -0.6  728  297    -1.8       
18 17.03.12 260 (З) >10 км    3/0 верхняя 
[Ci fib]
-2.6 -6.2 76 -7  1027.9  0.5  728  297    -1.8  0.0     
21 17.03.12 260 (З) 10  >10 км  слаб. снег  10/4 600 м средняя 
[Sc diur, vesp|Ac und]
-1.7 -5.3 76 -7  1027.6  0.1  728  296           
00 18.03.12 270 (З) 10  >10 км  слаб. снег  10/5 800 м средняя 
[Sc|Ac und]
-0.8 -6.8 64 -6  1027.9  0.4  729  295           
03 18.03.12 250 (З) 10  >10 км  позёмок{снег}  10/4 1000 м средняя 
[Sc diur, vesp|Ac und]
+0.1 -6 64 -5  1027.6  0.1  729  294        50  очень
неравномерный
сухой снег
(сугробы, заносы) 
06 18.03.12 250 (З) >10 км  {снег}  10/5 1000 м средняя 
[Sc|Ac und]
+2.2 -5.5 57 -1  1027.3  0.1  729  292  -2.6    0.0  50  очень
неравномерный
сухой снег
(сугробы, заносы) 
09 18.03.12 260 (З) 10  >10 км    3/0 средняя 
[Ac trans]
+4.1 -4.4 54 1026.4  -0.5  728  290           
12 18.03.12 270 (З) >10 км    3/0 средняя 
[Ac trans]
+5.6 -1.4 61 +2  1026.2  0.1  728  288           
15 18.03.12 260 (З) >10 км    3/0 средняя 
[Ac trans]
+4.9 -1.4 64 +2  1026.7  0.4  729  289    +6       
18 18.03.12 260 (З) >10 км    3/0 средняя 
[Ac trans]
+4.9 -1.4 64 +1  1026.7  0.4  729  289    +6       
21 18.03.12 260 (З) >10 км    ясно 
+4.2 -2.6 61 +1  1027  -0.3  729  289           
00 19.03.12 250 (З) >10 км    ясно 
+4.5 -2.7 60 +2  1026.5  -0.5  728  289           
03 19.03.12 260 (З) >10 км    3/0 верхняя 
[Ci fib]
+4.8 -2.8 58 +2  1026.4  728  289        38  мокрый или
старый снег
50-90% 
06 19.03.12 260 (З) >10 км    ясно 
+6.6 -2.8 51 +4  1027.1  729  287  +3.7         
09 19.03.12 270 (З) >10 км    ясно 
+10 -1.9 43 +9  1026  -0.4  729  283           
12 19.03.12 270 (З) >10 км    ясно 
+11.3 +0.6 48 +10  1025.2  -0.5  729  282           
15 19.03.12 260 (З) >10 км    ясно 
+8.6 -0.7 52 +8  1025.4  -0.3  728  285    +11.8       
18 19.03.12 250 (З) >10 км    ясно 
+5.6 -2.1 58 +4  1026.6  0.6  729  288    +11.8       
21 19.03.12 200 (Ю) >10 км    ясно 
+5.5 -2.6 56 +4  1025.8  -0.8  728  288           
00 20.03.12 250 (З) >10 км    ясно 
+7.2 -4.8 42 +5  1024.5  -1  728  286           
03 20.03.12 240 (ЮЗ) >10 км    ясно 
+7.1 -5.5 40 +5  1023.6  -0.9  727  286        26  мокрый или
старый снег
50-90% 
06 20.03.12 250 (З) >10 км    6/0 верхняя 
[Ci]
+11.3 -4.6 32 +9  1023.2  0.4  727  282  +4         
09 20.03.12 270 (З) 10{19}  >10 км    10/0 средняя, верхняя 
[Ac As|Ci]
+11.7 -0.6 43 +10  1023.1  727  281           
12 20.03.12 260 (З) 9{19}  >10 км    8/0 средняя, верхняя 
[Ac As|Ci]
+12.9 +0.9 44 +11  1022.3  727  279           
15 20.03.12 270 (З) >10 км    10/0 средняя, верхняя 
[Ac As|Ci sp]
+10.4 +0.4 50 +9  1023.5  0.7  727  282    +13.3       
18 20.03.12 270 (З) >10 км    8/0 средняя, верхняя 
[Ac trans|Ci fib]
+7.2 +0 60 +5  1025.1  0.9  728  286    +13.3       
21 20.03.12 280 (З) 10 км    8/6 1080 м средняя 
[Sc|Ac trans]
+5.7 +3.1 83 +3  1025.7  0.3  728  287           
00 21.03.12 270 (З) >10 км    8/5 1000 м средняя 
[Sc|Ac trans]
+3.9 +0 76 +2  1026.5  0.4  728  289           
03 21.03.12 250 (З) >10 км    6/3 1000 м средняя 
[Sc|Ac trans]
+1 -1.9 81 -2  1026.9  -0.2  728  293        12  мокрый или
старый снег
10-40% 
06 21.03.12 260 (З) >10 км    4/0 средняя, верхняя 
[Ac trans|Ci fib]
+6 -2.7 54 +3  1025.5  -0.4  728  287  +1      12  мокрый или
старый снег
10-40% 
09 21.03.12 260 (З) >10 км    4/0 средняя, верхняя 
[Ac trans|Ci fib]
+9.7 -6.2 32 +7  1023.2  -1.6  727  283           
12 21.03.12 270 (З) 12{18}  >10 км    8/0 средняя 
[Ac trans]
+9.9 -9.6 24 +7  1021.5  -1.5  726  283           
18 21.03.12 250 (З) 12  >10 км    10/6 1000 м средняя 
[Sc|Ac und]
+6.4 -6.7 39 +3  1020.8  -0.4  725  286    +10.8       
21 21.03.12 250 (З) >10 км    10/5 1000 м средняя 
[Sc|Ac und]
+6.1 -7.3 38 +3  1019.5  -1.3  724  286           
00 22.03.12 270 (З) 8{18}  10 км  слаб. ливневой дождь{снег}  10/8 300 м кучево-дожд., средняя 
[Cb cap|Ac und]
+2.3 +0.6 88 -1  1019  -1.1  723  289           
03 22.03.12 270 (З) 11  10 км  слаб. ливневой дождь  10/8 300 м кучево-дожд., средняя 
[Cb cap|Ac und]
+2.2 +1.2 93 -2  1018.9  -0.1  723  289        мокрый или
старый снег
10-40% 
06 22.03.12 280 (З) 6{20}  4000 м  слаб. ливневой снег  10/8 100 м кучево-дожд., средняя 
[Cb cap|Ac und]
+0.7 +0.3 97 -3  1021.6  2.2  725  291         
09 22.03.12 300 (СЗ) 4000 м  слаб. ливневой дождь  10/8 300 м кучево-дожд., средняя 
[Cb cap|Ac und]
+2.2 +1.3 94 -1  1021.7  0.5  725  289           
12 22.03.12 300 (СЗ) 10 км  {ливн. осадки}  8/5 300 м кучево-дожд., средняя 
[Cb calv|Ac trans]
+4 -0.2 74 +1  1021  -0.3  725  288           
15 22.03.12 270 (З) 10 км  в посл. час ливневой дождь  8/5 600 м кучево-дожд., средняя 
[Cb calv|Ac trans]
+2.2 +0.6 89 1022  0.6  725  290    +4.6       
18 22.03.12 290 (З) >10 км  {ливн. осадки}  4/0 средняя 
[Ac trans]
+0.8 -0.6 90 -2  1024.2  1.8  726  292    +4.6     
21 22.03.12 280 (З) 10 км  слаб. ливневой снег  10/8 480 м кучево-дожд., средняя 
[Cb cap|Ac und]
+0 -0.4 97 -2  1024.8  0.4  727  293           
00 23.03.12 290 (З) >10 км  в посл. час ливневой снег  4/3 600 м кучево-дожд., средняя 
[Cb calv|Ac trans]
-1.6 -2.3 95 -4  1025.7  0.4  727  295           
03 23.03.12 250 (З) >10 км    5/0 средняя 
[Ac trans]
-2.3 -4.1 87 -6  1025.9  727  296        равномерный
мокрый или
старый снег
100% 
06 23.03.12 250 (З) >10 км    4/1 600 м кучево-дожд., верхняя 
[Cb calv|Ci]
+1.4 -4.5 65 -1  1024.8  -0.3  727  292  -3.2    равномерный
мокрый или
старый снег
100% 
09 23.03.12 270 (З) 10  >10 км    9/3 300 м средняя, верхняя 
[Sc diur, vesp|Ac trans|Ci fib]
+4.9 -1.6 63 +1  1022.9  -1.1  726  287           
12 23.03.12 270 (З) 12-18{20}  >10 км    9/4 300 м средняя, верхняя 
[Sc|Ac trans|Ci fib]
+6.2 -0.1 64 +2  1020  -2.4  724  285           
15 23.03.12 260 (З) 13-18{21}  >10 км    8/4 600 м средняя 
[Sc|Ac trans]
+5.3 -0.4 67 +1  1018.7  -1.4  723  286           
18 23.03.12 250 (З) 11{20}  >10 км    9/4 600 м средняя 
[Sc|Ac trans]
+4.5 -1.8 64 1018.1  -0.7  723  287    +7.2       
21 23.03.12 250 (З) 14-18{21}  >10 км    8/5 600 м средняя 
[Sc|Ac trans]
+5.5 -2.7 55 +1  1015.9  -1.9  721  285           
00 24.03.12 270 (З) 15-19{23}  >10 км    8/4 600 м средняя 
[Sc|Ac trans]
+4.9 -1.4 64 1013.9  -2  720  285           
03 24.03.12 270 (З) 15-21  >10 км    9/4 1000 м средняя 
[Sc|Ac trans]
+5.5 -1.4 61 +1  1012.8  -0.9  719  284        мокрый или
старый снег
10-40% 
06 24.03.12 280 (З) 10  10 км  слаб. ливневой дождь  10/8 600 м кучево-дожд., средняя 
[Cb cap|Ac und]
+4.5 +1.2 79 +1  1015.4  2.2  721  285  +3.8      мокрый или
старый снег
10-40% 
09 24.03.12 290 (З) 11{18}  4000 м  слаб. ливневой дождь  10/6 300 м кучево-дожд., средняя 
[Cb cap|Ac und]
+3.8 +2.7 93 1017  1.4  722  286           
12 24.03.12 290 (З) 10{21}  3000 м  слаб. ливневой дождь  10/8 300 м кучево-дожд., средняя 
[Cb cap|Ac und]
+4.4 +3.5 94 +1  1018.2  1.2  723  286           
15 24.03.12 280 (З) 4000 м  дымка{ливн. осадки}  10/6 500 м кучево-дожд., средняя 
[Cb cap|Ac und]
+3.7 +2.3 91 +1  1020.2  1.7  724  287    +6.1       
18 24.03.12 360 (С) >10 км  {ливн. осадки}  10/6 300 м кучево-дожд., средняя 
[Cb cap|Ac und]
+1.3 +0 91 -1  1023  2.2  726  291    +6.1     
21 24.03.12 140 (ЮВ) >10 км    10/5 300 м средняя 
[Sc diur, vesp|Ac und]
-0.1 -1.2 92 +1  1024.1  0.7  726  293           
00 25.03.12 210 (ЮЗ) >10 км    10/3 600 м средняя 
[Sc|Ac und]
-0.6 -1.4 94 -1  1024.1  0.1  726  293           
03 25.03.12 260 (З) >10 км    9/6 800 м средняя 
[Sc|Ac trans]
-0.4 -1.7 91 1024.4  0.3  726  293           
06 25.03.12 050 (СВ) >10 км    5/4 600 м средняя 
[Sc|Ac trans]
+2.4 -3.6 64 +3  1024.5  0.7  726  290  -0.9    0.0     
09 25.03.12 020 (С) >10 км    6/5 600 м средняя 
[Sc|Ac trans]
+4.7 -2.5 59 +6  1022.8  -1.2  726  288           
12 25.03.12 160 (Ю) >10 км    9/6 600 м средняя 
[Sc|Ac trans]
+5.8 -1.4 60 +7  1021.3  -1.2  725  286           
15 25.03.12 230 (ЮЗ) >10 км    9/6 1000 м кучево-дожд., средняя 
[Cb calv|Ac trans]
+5.5 -1.3 61 +6  1020  -1.3  724  286    +6.5       
18 25.03.12 190 (Ю) >10 км    10/5 1000 м кучево-дожд., средняя 
[Cb cap|Ac und]
+3.4 +0.9 84 +3  1019.4  -0.9  723  288    +6.5       
21 25.03.12 190 (Ю) >10 км    3/0 средняя 
[Ac trans]
+1.9 -0.3 85 1017.2  -2.4  722  289           
00 26.03.12 180 (Ю) >10 км    3/0 средняя 
[Ac trans]
+1.1 -1.5 83 1014.7  -2.6  720  289           
03 26.03.12 170 (Ю) >10 км    3/0 средняя 
[Ac trans]
+1.5 -2.1 77 -1  1011.5  -2.9  717  288           
06 26.03.12 200 (Ю) >10 км    3/0 средняя 
[Ac trans]
+10.2 -1.2 45 +11  1009.6  -0.6  717  279  +1.2         
09 26.03.12 350 (С) >10 км    9/0 средняя 
[Ac trans]
+9.8 +3.1 63 +9  1007.4  -1.8  716  278           
12 26.03.12 340 (С) >10 км    10/4 600 м средняя 
[Sc|Ac und]
+6.2 -1 60 +4  1007.6  -0.5  715  282           
15 26.03.12 310 (СЗ) 10 км  слаб. ливневой дождь  10/8 420 м кучево-дожд., средняя 
[Cb cap|Ac und]
+3.8 +2.4 91 +1  1007.4  -0.5  715  284    +10.8       
18 26.03.12 280 (З) 2000 м  слаб. ливневой снег{дождь}  10/8 200 м кучево-дожд., средняя 
[Cb cap|Ac und]
-0.1 -0.4 98 -4  1010  1.6  716  289    +10.8     
21 26.03.12 270 (З) >10 км  слаб. ливневой снег  10/6 330 м кучево-дожд., средняя 
[Cb cap|Ac und]
+0.1 -0.6 95 -4  1009.9  0.1  716  288           
00 27.03.12 270 (З) 11  10 км  {ливн. осадки}  10/8 480 м кучево-дожд., средняя 
[Cb calv|Ac und]
-2 -3.8 87 -8  1010.5  0.2  716  291           
03 27.03.12 280 (З) 10  >10 км  позёмок{ливн. осадки}  8/3 600 м кучево-дожд., средняя 
[Cb calv|Ac trans]
-3.4 -6.2 81 -9  1012.3  1.5  717  293        равномерный
сухой снег
100% 
06 27.03.12 270 (З) 10  10 км  позёмок{ливн. осадки}  8/6 600 м кучево-дожд., средняя 
[Cb cap|Ac trans]
-2.9 -4.6 88 -8  1014.1  1.8  719  293  -3.4       
09 27.03.12 280 (З) 10{20}  >10 км  слаб. ливневой снег  9/6 750 м кучево-дожд., средняя 
[Cb cap|Ac trans]
-2.1 -5.5 77 -7  1014.8  0.8  719  293           
12 27.03.12 290 (З) 10 км  {ливн. осадки}  8/8 700 м кучево-дожд. 
[Cb calv]
-0.7 -3.1 84 -5  1014.7  0.2  719  291           
15 27.03.12 280 (З) >10 км  в посл. час ливневой снег  4/4 600 м кучево-дожд. 
[Cb calv]
-0.5 -5.4 69 -4  1014.6  -0.1  719  291    +0.3       
18 27.03.12 290 (З) >10 км  пыльные вихри{ливн. осадки}  3/0 средняя 
[Ac trans]
-2.1 -7.9 64 -6  1016.5  1.5  720  293    +0.3  0.0     
21 27.03.12 260 (З) >10 км    3/0 средняя 
[Ac trans]
-3.8 -7.3 77 -7  1017.8  0.9  721  295           
00 28.03.12 250 (З) >10 км    ясно 
-5.3 -9.1 75 -9  1017.5  -0.6  721  297           
03 28.03.12 230 (ЮЗ) >10 км    3/0 верхняя 
[Ci fib]
-5.4 -8.9 76 -9  1017.3  -0.2  720  297           
06 28.03.12 190 (Ю) >10 км    8/0 средняя, верхняя 
[Ac trans|Ci fib]
+0.8 -7.5 54 -2  1016.5  0.6  721  290  -6.1         
09 28.03.12 190 (Ю) >10 км    10/3 1000 м кучево-дожд., средняя 
[Cb calv|Ac und]
+4 -7.5 43 +2  1015.3  -0.6  720  287           
12 28.03.12 210 (ЮЗ) >10 км    8/3 1000 м средняя 
[Sc|Ac trans]
+6 -7.7 37 +5  1013.7  -1.1  720  284           
15 28.03.12 190 (Ю) >10 км    8/0 средняя 
[Ac trans]
+5.4 -6.2 43 +4  1013.8  -0.1  720  285    +6.8       
18 28.03.12 300 (СЗ) >10 км    6/0 средняя 
[Ac As]
+3 -4.9 56 +2  1015.3  720  288    +6.8       
21 28.03.12 170 (Ю) >10 км    ясно 
+1 -3.9 70 1014.7  -0.9  720  289           
00 29.03.12 310 (СЗ) >10 км    3/0 средняя 
[Ac trans]
-0 -3.9 75 -1  1014.4  -0.4  719  290           
03 29.03.12 310 (СЗ) >10 км    10/4 30 м средняя 
[Sc|Ac und]
+0.1 -4.8 70 -1  1014.7  0.3  720  290          замёрзшая 
06 29.03.12 120 (ЮВ) >10 км    9/3 600 м средняя 
[Sc|Ac trans]
+4 -3.9 56 +4  1014.6  0.6  720  286          замёрзшая 
09 29.03.12 260 (З) >10 км    10/3 1000 м средняя 
[Sc|Ac und]
+6.8 -4.6 44 +6  1013.7  -0.3  720  283           
12 29.03.12 280 (З) >10 км    8/5 1000 м средняя 
[Sc|Ac trans]
+8.6 -1.6 49 +7  1013  -0.4  719  281           
15 29.03.12 310 (СЗ) >10 км    6/0 средняя 
[Ac trans]
+5.2 -0.5 67 +4  1013.6  719  284    +9.2       
18 29.03.12 170 (Ю) >10 км    3/0 средняя 
[Ac trans]
+1.3 -1.3 83 +1  1014.9  0.4  720  289    +9.2       
21 29.03.12 140 (ЮВ) >10 км    1/0 средняя 
[Ac trans]
+1 -1.4 84 1013.7  -1.1  719  289           
00 30.03.12 190 (Ю) >10 км    ясно 
-1.1 -2.1 93 -2  1012.6  -1.4  718  291           
03 30.03.12 140 (ЮВ) >10 км    3/0 средняя 
[Ac trans]
-0 -1.5 90 -2  1010.6  -1.6  717  289           
06 30.03.12 150 (ЮВ) >10 км    9/0 средняя, верхняя 
[Ac trans|Ci fib]
+8 -0.7 54 +7  1007.9  -1  716  280  -2.6         
09 30.03.12 140 (ЮВ) >10 км    9/0 верхняя 
[Ci fib]
+15 -7.6 20 +14  1004.5  -2.1  714  273           
12 30.03.12 170 (Ю) >10 км    8/0 верхняя 
[Ci fib]
+17.2 -8.7 16 +17  1002.1  -1.9  713  271           
15 30.03.12 300 (СЗ) >10 км    9/3 1000 м кучево-дожд., верхняя 
[Cb calv|Ci fib]
+13.1 -5.9 26 +13  1002.5  -0.3  713  275    +17.4       
18 30.03.12 130 (ЮВ) >10 км    4/0 средняя 
[Ac trans]
+9 -5.3 36 +9  1002.5  -0.7  712  278    +17.4       
21 30.03.12 150 (ЮВ) >10 км    3/0 средняя 
[Ac trans]
+6.5 -0.1 63 +5  1000.8  -2.1  711  280           
00 31.03.12 140 (ЮВ) >10 км    3/0 средняя 
[Ac trans]
+6.5 -0.2 62 +6  998.4  -2.2  709  279           
03 31.03.12 300 (СЗ) >10 км    9/0 средняя 
[Ac trans]
+5.9 -2.1 56 +3  998.3  -0.3  709  280           
06 31.03.12 280 (З) >10 км    10/5 500 м кучево-дожд., средняя 
[Cb cap|Ac und]
+5.8 +2.5 79 +3  1000.9  2.5  711  280  +5.8        влажная 
09 31.03.12 270 (З) 10 км  слаб. ливневой дождь  10/5 300 м кучево-дожд., средняя 
[Cb cap|Ac und]
+3.8 +2.7 93 +1  1003.1  1.6  712  282           
12 31.03.12 280 (З) >10 км  {ливн. осадки}  10/6 450 м кучево-дожд., средняя 
[Cb cap|Ac und]
+4.9 +2.6 85 +2  1004.2  1.3  713  282           
15 31.03.12 290 (З) >10 км    6/3 600 м кучево-дожд., средняя, верхняя 
[Cb cap|Ac trans|Ci fib]
+4.9 +1.6 79 +2  1005.9  1.6  714  282    +6.8       
18 31.03.12 280 (З) >10 км    6/0 средняя, верхняя 
[Ac trans|Ci]
+3.8 +0.5 79 +1  1008.4  2.2  716  284    +6.8  0.8     
21 31.03.12 260 (З) >10 км    3/0 средняя 
[Ac und]
+2.4 -0.7 80 -1  1008.8  0.1  716  286           
00 01.04.12 220 (ЮЗ) >10 км    ясно 
+0.1 -1.8 87 -2  1009.2  0.1  716  288           
03 01.04.12 170 (Ю) >10 км    3/0 верхняя 
[Ci fib]
-0 -3.5 77 -2  1008.5  -0.7  715  288           
06 01.04.12 150 (ЮВ) >10 км    10/5 1000 м кучево-дожд., средняя 
[Cb calv|Ac und]
+7.5 -2.6 49 +6  1006.5  -0.5  715  280  -0.6         
09 01.04.12 190 (Ю) >10 км    6/0 средняя 
[Ac trans]
+15.1 -4.6 25 +14  1003.7  -1.3  714  273           
Время (UTC), дата Ветер
(°,м/с) 
Видим.   Явления Облачность Т
(°С)
Тd
(°С)
f(%) Тe
(°С)
Pmin
(гПа)
dP
(гПа)
Po
(мм)
O2
(г/м3)
Тmin Tmax R s Состояние
почвы